Weather History for Bemidji, MN

Change the Weather History Date:

Saturday, October 6, 2012

  Actual Average Record
Temperature  
Mean Temperature 34 °F -  
Max Temperature 39 °F 55 °F 82 °F (1961)
Min Temperature 28 °F 35 °F 20 °F (1976)
Degree Days  
Heating Degree Days 32    
Moisture  
Dew Point 27 °F    
Average Humidity 79    
Maximum Humidity 97    
Minimum Humidity 57    
Precipitation  
Precipitation 0.00 in - - ()
Sea Level Pressure  
Sea Level Pressure 30.23 in    
Wind  
Wind Speed 8 mph (WNW)    
Max Wind Speed 15 mph    
Max Gust Speed 18 mph    
Visibility 10 miles    
Events Snow    
Averages and records for this station are not official NWS values.
T = Trace of Precipitation, MM = Missing Value Source: NWS Daily Summary

Daily Weather History Graph

Daily Weather History Graph

Search for Another Location

Airport:

Trip Planner

Search our weather history database for the weather conditions in past years. The results will help you decide how hot, cold, wet, or windy it might be!

Date:

Astronomy

Oct. 06, 2012 Rise Set
Actual Time 7:26 AM CDT 6:48 PM CDT
Civil Twilight 6:55 AM CDT 7:18 PM CDT
Nautical Twilight 6:20 AM CDT 7:54 PM CDT
Astronomical Twilight 5:44 AM CDT 8:30 PM CDT
Moon 10:45 PM CDT (10/6) 1:40 PM CDT (10/6)
Length of Visible Light 12h 23m
Length of Day
11h 21m
Waning Gibbous, 65% of the Moon is Illuminated
Oct 6
Waning Gibbous
Oct 8
Last Quarter
Oct 15
New
Oct 21
First Quarter
Oct 29
Full

Hourly Weather History & Observations

Time (CDT) Temp. Windchill Dew Point Humidity Pressure Visibility Wind Dir Wind Speed Gust Speed Precip Events Conditions
12:15 AM 32.2 °F 23.8 °F 31.1 °F 96% 30.17 in 2.5 mi North 10.4 mph 17.3 mph N/A Snow Light Snow
12:35 AM 32.0 °F 24.2 °F 31.3 °F 97% 30.17 in 1.0 mi North 9.2 mph 17.3 mph N/A Snow Snow
12:55 AM 32.0 °F 26.4 °F 30.9 °F 96% 30.18 in 10.0 mi NNW 5.8 mph - N/A   Mostly Cloudy
1:15 AM 32.0 °F 24.2 °F 30.7 °F 95% 30.19 in 1.0 mi North 9.2 mph - N/A Snow Light Snow
1:55 AM 31.8 °F 25.4 °F 30.0 °F 93% 30.19 in 10.0 mi NNW 6.9 mph - N/A   Overcast
2:15 AM 32.0 °F 26.4 °F 30.0 °F 92% 30.19 in 10.0 mi NNW 5.8 mph - N/A   Overcast
2:35 AM 32.0 °F 25.6 °F 29.7 °F 91% 30.20 in 10.0 mi NNW 6.9 mph - N/A   Overcast
2:55 AM 32.0 °F 27.5 °F 29.1 °F 89% 30.20 in 10.0 mi NNW 4.6 mph - N/A   Overcast
3:15 AM 32.0 °F 26.4 °F 29.5 °F 90% 30.20 in 10.0 mi NNW 5.8 mph - N/A   Overcast
3:55 AM 32.0 °F 25.6 °F 29.7 °F 91% 30.21 in 10.0 mi NNW 6.9 mph - N/A   Overcast
4:15 AM 32.0 °F 27.5 °F 29.5 °F 90% 30.21 in 10.0 mi NNW 4.6 mph - N/A   Overcast
4:35 AM 31.8 °F 26.2 °F 29.3 °F 90% 30.22 in 10.0 mi NNW 5.8 mph - N/A   Overcast
4:55 AM 31.5 °F 25.8 °F 28.6 °F 89% 30.22 in 10.0 mi NW 5.8 mph - N/A   Mostly Cloudy
5:15 AM 29.5 °F 24.5 °F 27.3 °F 92% 30.22 in 10.0 mi NW 4.6 mph - N/A   Mostly Cloudy
5:35 AM 28.6 °F 19.9 °F 27.0 °F 94% 30.23 in 10.0 mi WNW 9.2 mph - N/A   Mostly Cloudy
5:55 AM 28.9 °F 20.4 °F 28.2 °F 97% 30.24 in 10.0 mi NW 9.2 mph - N/A   Mostly Cloudy
6:15 AM 29.7 °F 20.1 °F 28.8 °F 96% 30.24 in 10.0 mi NW 11.5 mph - N/A   Overcast
6:55 AM 29.5 °F 21.1 °F 28.4 °F 96% 30.25 in 10.0 mi NW 9.2 mph - N/A   Overcast
7:15 AM 29.5 °F 21.1 °F 28.4 °F 96% 30.25 in 10.0 mi NW 9.2 mph - N/A   Overcast
7:35 AM 29.8 °F 21.5 °F 28.6 °F 95% 30.25 in 10.0 mi NW 9.2 mph - N/A   Overcast
7:55 AM 29.7 °F 20.7 °F 28.4 °F 95% 30.26 in 10.0 mi WNW 10.4 mph - N/A   Overcast
8:15 AM 29.1 °F 21.3 °F 27.9 °F 95% 30.27 in 10.0 mi WNW 8.1 mph - N/A   Mostly Cloudy
8:35 AM 28.8 °F 20.9 °F 27.5 °F 95% 30.27 in 10.0 mi NW 8.1 mph - N/A   Scattered Clouds
9:15 AM 30.2 °F 22.6 °F 28.2 °F 92% 30.28 in 10.0 mi NW 8.1 mph - N/A   Overcast
9:35 AM 30.4 °F 23.6 °F 28.2 °F 92% 30.28 in 10.0 mi NW 6.9 mph - N/A   Scattered Clouds
9:55 AM 31.1 °F 23.1 °F 28.4 °F 90% 30.29 in 10.0 mi NW 9.2 mph - N/A   Scattered Clouds
10:15 AM 32.0 °F 23.6 °F 28.4 °F 87% 30.29 in 10.0 mi NW 10.4 mph - N/A   Scattered Clouds
10:35 AM 32.2 °F 25.8 °F 29.1 °F 88% 30.30 in 10.0 mi NW 6.9 mph - N/A   Scattered Clouds
10:55 AM 32.9 °F 26.7 °F 29.3 °F 87% 30.30 in 10.0 mi NW 6.9 mph - N/A   Scattered Clouds
11:15 AM 34.0 °F 26.6 °F 29.1 °F 82% 30.30 in 10.0 mi WNW 9.2 mph - N/A   Clear
11:35 AM 35.1 °F 27.9 °F 28.9 °F 78% 30.30 in 10.0 mi NW 9.2 mph - N/A   Clear
11:55 AM 36.0 °F 29.0 °F 29.1 °F 76% 30.30 in 10.0 mi NW 9.2 mph - N/A   Clear
12:15 PM 36.9 °F 30.7 °F 28.6 °F 72% 30.30 in 10.0 mi NW 8.1 mph 16.1 mph N/A   Scattered Clouds
12:35 PM 37.6 °F 30.5 °F 28.6 °F 70% 30.30 in 10.0 mi WNW 10.4 mph - N/A   Scattered Clouds
12:55 PM 38.3 °F 30.5 °F 28.8 °F 69% 30.29 in 10.0 mi WNW 12.7 mph 17.3 mph N/A   Scattered Clouds
1:15 PM 38.8 °F 30.8 °F 28.0 °F 65% 30.29 in 10.0 mi NW 13.8 mph 18.4 mph N/A   Scattered Clouds
1:35 PM 37.0 °F 29.3 °F 26.2 °F 65% 30.28 in 10.0 mi NW 11.5 mph - N/A   Scattered Clouds
1:55 PM 37.9 °F 30.0 °F 26.8 °F 64% 30.27 in 10.0 mi NW 12.7 mph - N/A   Mostly Cloudy
2:15 PM 38.5 °F 31.1 °F 26.2 °F 61% 30.26 in 10.0 mi NW 11.5 mph 18.4 mph N/A   Mostly Cloudy
2:35 PM 38.8 °F 30.4 °F 25.5 °F 59% 30.26 in 10.0 mi WNW 15.0 mph 18.4 mph N/A   Mostly Cloudy
2:55 PM 39.9 °F 32.1 °F 26.1 °F 58% 30.25 in 10.0 mi WNW 13.8 mph 18.4 mph N/A   Overcast
3:15 PM 39.6 °F 32.1 °F 26.2 °F 59% 30.25 in 10.0 mi WNW 12.7 mph - N/A   Overcast
3:35 PM 38.8 °F 30.8 °F 25.7 °F 59% 30.24 in 10.0 mi WNW 13.8 mph - N/A   Overcast
3:55 PM 39.6 °F 31.7 °F 25.7 °F 58% 30.24 in 10.0 mi WNW 13.8 mph - N/A   Mostly Cloudy
4:15 PM 39.4 °F 32.7 °F 25.3 °F 57% 30.24 in 10.0 mi NW 10.4 mph - N/A   Mostly Cloudy
4:35 PM 39.2 °F 31.6 °F 25.0 °F 57% 30.23 in 10.0 mi WNW 12.7 mph - N/A   Overcast
4:55 PM 38.7 °F 31.4 °F 25.3 °F 59% 30.23 in 10.0 mi NW 11.5 mph - N/A   Overcast
5:15 PM 39.0 °F 31.0 °F 25.3 °F 58% 30.22 in 10.0 mi West 13.8 mph - N/A   Overcast
5:35 PM 38.7 °F 32.9 °F 24.4 °F 57% 30.22 in 10.0 mi West 8.1 mph - N/A   Mostly Cloudy
5:55 PM 37.8 °F 31.8 °F 24.4 °F 59% 30.21 in 10.0 mi West 8.1 mph - N/A   Clear
6:15 PM 37.9 °F 32.1 °F 24.8 °F 59% 30.21 in 10.0 mi WNW 8.1 mph - N/A   Clear
6:35 PM 37.2 °F 31.2 °F 24.6 °F 60% 30.21 in 10.0 mi West 8.1 mph - N/A   Clear
6:55 PM 35.8 °F 33.0 °F 24.4 °F 63% 30.21 in 10.0 mi WSW 3.5 mph - N/A   Clear
7:15 PM 35.2 °F 31.2 °F 24.8 °F 66% 30.20 in 10.0 mi WSW 4.6 mph - N/A   Clear
7:35 PM 34.7 °F 31.8 °F 25.0 °F 68% 30.19 in 10.0 mi WSW 3.5 mph - N/A   Clear
7:55 PM 34.0 °F - 25.3 °F 71% 30.19 in 10.0 mi Calm Calm - N/A   Clear
8:15 PM 32.5 °F 29.3 °F 25.7 °F 76% 30.19 in 10.0 mi SSW 3.5 mph - N/A   Clear
8:35 PM 32.0 °F 27.5 °F 24.8 °F 75% 30.18 in 10.0 mi SSW 4.6 mph - N/A   Clear
8:55 PM 31.6 °F 26.0 °F 25.0 °F 76% 30.18 in 10.0 mi SSW 5.8 mph - N/A   Clear
9:15 PM 31.6 °F 26.0 °F 25.7 °F 79% 30.17 in 10.0 mi SSW 5.8 mph - N/A   Clear
9:35 PM 32.0 °F 26.4 °F 25.9 °F 78% 30.17 in 10.0 mi SSW 5.8 mph - N/A   Clear
9:55 PM 31.8 °F 26.2 °F 25.7 °F 78% 30.17 in 10.0 mi SSW 5.8 mph - N/A   Clear
11:15 PM 30.9 °F 25.2 °F 25.3 °F 80% 30.14 in 10.0 mi SW 5.8 mph - N/A   Clear
11:35 PM 30.7 °F 24.9 °F 25.3 °F 80% 30.14 in 10.0 mi SSW 5.8 mph - N/A   Clear
11:55 PM 30.6 °F 23.8 °F 25.3 °F 81% 30.13 in 10.0 mi SSW 6.9 mph - N/A   Clear